SCOUT A DEB, 3214

Orbit data source: Space-Track

SCOUT A DEB, 3214 is space debris in LEO originally from a launch on Sat, 02 Mar 1968 UTC launched from the Air Force Western Test Range (AFWTR). Debris objects in space refer to the collection of defunct objects orbiting the Earth. Examples of debris include non-operational satellites, rocket bodies, and fragments generated from explosions, collisions, or faulty payload assembly.

Loading next visibility...
Identifier
3214, 1968-012D
Orbit
LEO
Country
Flag of USUS
Related business
Manufacturer
Unknown
Mission
Spacecraft
Bus & Motor
Unknown
Mass
Unknown
Launch date (UTC)
1968-03-02 (58 years ago)
Launch vehicle
Unknown
Launch site
Air Force Western Test Range (AFWTR)
Object type
Payload
Rocket body
Debris
Shape & HBR
Unknown shape, 0.1 m
Radar Cross Section
Small (<0.1 m²)

Expand to show TLE details & history
Last TLE update: 4 days ago

TLE from 4 days ago
0 SCOUT A DEB
1 03214U 68012D   26097.49358480  .00000194  00000-0  35898-3 0  9992
2 03214  89.8121 104.7975 0187877  94.8940  21.4785 13.29266577575143
Epoch: 2026-04-07T11:50Z
TLE epoch observation values (Epoch: 2026-04-07T11:50:45.726Z)
Latitude
62.90762°
Longitude
-89.02794°
Altitude
1,029.148 km
Speed
7.407 km/s
True Right ascension
18h 57m 43s
True Declination
62° 46' 23"
Sunlit
Object was in daylight at epoch
Visualization orbit readout
Latitude
Unknown
Longitude
Unknown
Altitude
Unknown
Speed
Unknown
Apparent Right ascension
Unknown
Apparent Declination
Unknown
Sunlit
N/A
Visualization observer readout
Local Sidereal Time
18:09:08
Azimuth
Unknown
Elevation
Unknown
Doppler factor
Unknown
Orbital elements
Apogee altitude
1,287.982 km
Perigee altitude
1,005.237 km
Semi-major axis
7,524.747 km
Eccentricity
0.01879
Inclination
89.8121°
RAAN
104.7975°
Arg. of periapsis
94.894°
True anomaly
22.28436°
Mean anomaly
21.4785°
Eccentric anomaly
21.87965°
Mean motion
3.3251 °/min
Orbital period
108.27 mins
BSTAR
0.00035898
Loading maneuver chart data...
Computing Atmospheric mass density...
Loading historical data...
Loading historical data...
Loading historical data...
Loading historical data...
Loading historical data...
Loading historical data...
Loading historical data...

Documentation

Showing up to 5 results
|